This is the latest recevied weather packets stored in our database for station/object K7FRY. If no packets are shown the sender has not sent any weather packets the latest 10 day(s).
| Time | Temp. | Humidity | Pressure | Rain* | Wind** | Luminosity | Snow |
|---|---|---|---|---|---|---|---|
| 1777834680 | 28.33° C | 33% | 1014.2 hPa | 0 mm | - | 451 W/m² | - |
| 1777834376 | 28.33° C | 33% | 1014.8 hPa | 0 mm | - | 411 W/m² | - |
| 1777834076 | 28.33° C | 34% | 1014.9 hPa | 0 mm | - | 356 W/m² | - |
| 1777833773 | 27.78° C | 34% | 1014.7 hPa | 0 mm | - | 335 W/m² | - |
| 1777833468 | 27.78° C | 34% | 1014.7 hPa | 0 mm | - | 316 W/m² | - |
| 1777833166 | 27.78° C | 34% | 1014.8 hPa | 0 mm | - | 329 W/m² | - |
| 1777832864 | 27.78° C | 34% | 1015 hPa | 0 mm | - | 347 W/m² | - |
| 1777832563 | 27.78° C | 34% | 1015 hPa | 0 mm | - | 348 W/m² | - |
| 1777832259 | 28.33° C | 34% | 1015.1 hPa | 0 mm | - | 340 W/m² | - |
| 1777831956 | 28.33° C | 34% | 1015.4 hPa | 0 mm | - | 425 W/m² | - |
| 1777831652 | 27.78° C | 34% | 1015 hPa | 0 mm | - | 472 W/m² | - |
| 1777831351 | 27.22° C | 35% | 1015.4 hPa | 0 mm | - | 529 W/m² | - |
| 1777831047 | 28.33° C | 34% | 1015.6 hPa | 0 mm | - | 409 W/m² | - |
| 1777830745 | 27.78° C | 35% | 1015.5 hPa | 0 mm | - | 509 W/m² | - |
| 1777830441 | 27.22° C | 35% | 1015.5 hPa | 0 mm | - | 358 W/m² | - |
| 1777830139 | 27.22° C | 35% | 1015.6 hPa | 0 mm | - | 294 W/m² | - |
| 1777829834 | 27.22° C | 35% | 1015.5 hPa | 0 mm | - | 272 W/m² | - |
| 1777829530 | 27.22° C | 35% | 1015.6 hPa | 0 mm | - | 300 W/m² | - |
| 1777829227 | 27.78° C | 35% | 1015.8 hPa | 0 mm | - | 308 W/m² | - |
| 1777828924 | 27.22° C | 35% | 1016 hPa | 0 mm | - | 310 W/m² | - |
| 1777828620 | 27.22° C | 35% | 1016.1 hPa | 0 mm | - | 323 W/m² | - |
| 1777828318 | 27.22° C | 35% | 1016.2 hPa | 0 mm | - | 376 W/m² | - |
| 1777828015 | 27.78° C | 35% | 1015.8 hPa | 0 mm | - | 355 W/m² | - |
| 1777827711 | 27.22° C | 35% | 1016 hPa | 0 mm | - | 335 W/m² | - |
| 1777827409 | 26.67° C | 35% | 1016 hPa | 0 mm | - | 547 W/m² | - |
* Rain latest hour (hover to see other rain measurements)
** Current wind speed in m/s (hover to see current wind gust speed)